Location: Palmerston North
(40.3500°S, 175.6170°E)
Time: 23:36:27
(UTC+13:00)

CZ-4C R/B - Pass Details

Date: 24 January 2019
Orbit: 671 x 1331 km, 63.4° (Epoch: 17 February)

Event Time Altitude Azimuth Distance (km) Brightness Sun altitude
Rises 22:01:19 0° 209° (SSW) 3,672 6.9 -13.2°
Reaches altitude 10° 22:05:08 10° 188° (S) 2,578 5.4 -13.8°
Maximum altitude 22:08:43 16° 150° (SSE) 2,038 4.3 -14.3°
Drops below altitude 10° 22:12:01 10° 112° (ESE) 2,332 4.2 -14.8°
Enters shadow 22:13:13 - 102° (ESE) 2,601 4.4 -15.0°
